     18   12 42.88  -38 14.7    2.206   1.997    40.1/140    64.8   26.5   12.2   +13.9  343.6

     19   12 45.07  -38 45.5    2.201   1.998    40.0/140    65.2   26.5   12.2   +13.5  344.2

     20   12 47.26  -39 16.2    2.196   1.999    39.9/140    65.5   26.6   12.2   +13.2  344.8

     21   12 49.47  -39 46.9    2.191   2.000    39.8/140    65.8   26.7   12.2   +12.8  345.4

     22   12 51.68  -40 17.4    2.186   2.001    39.6/140    66.1   26.7   12.2   +12.4  346.0

     23   12 53.91  -40 47.9    2.181   2.002    39.5/140    66.5   26.8   12.2   +12.0  346.5

     24   12 56.14  -41 18.2    2.176   2.004    39.4/140    66.8   26.8   12.2   +11.6  347.0

     25   12 58.39  -41 48.5    2.171   2.005    39.2/140    67.1   26.9   12.2   +11.2  347.6

     26   13 00.64  -42 18.6    2.167   2.006    39.1/140    67.4   26.9   12.2   +10.8  348.1

     27   13 02.91  -42 48.6    2.162   2.008    38.9/140    67.7   27.0   12.2   +10.4  348.6

     28   13 05.18  -43 18.5    2.158   2.009    38.8/140    68.0   27.0   12.2   +10.0  349.0

     29   13 07.47  -43 48.2    2.154   2.011    38.6/140    68.3   27.0   12.2    +9.6  349.5

     30   13 09.77  -44 17.8    2.150   2.012    38.4/140    68.7   27.1   12.2    +9.2  350.0

     31   13 12.07  -44 47.3    2.146   2.014    38.2/140    69.0   27.1   12.2    +8.8  350.4

Jan.  1   13 14.39  -45 16.6    2.142   2.016    38.1/140    69.3   27.1   12.2    +8.4  350.8

                    m1 =  7.5 + 5 log △ + 10.0 log r

NAKANO

         **** Don't distribute anyone except personal use only ****

                (C) Copyright 2006 OAA/ComputingSection

write mail from CFAD0::NAKANO on 2006-12-02 06:41:01(JST).

 

    C/2005 YW (LINEAR)

Epoch 2006 Dec. 11.0 TT = JDT 2454080.5  

T 2006 Dec. 7.85007 TT                                  Nakano

q   1.9930116            (2000.0)            P               Q

z  +0.0052548      Peri.  234.63452     -0.83283893     +0.06259978

 +/-0.0000104      Node   302.21430     +0.35704987     -0.69847262

e   0.9895270      Incl.   40.54384     -0.42295947     -0.71289359

From 68 observations 2005 Dec. 21-2006 Oct. 25, mean residual 0".50.

   (1/a)org.= +0.000000, (1/a)fut.= +0.006834 (+/-0.000010), Q= 6.



NAKANO

         **** Don't distribute anyone except personal use only ****

                (C) Copyright 2006 OAA/ComputingSection

write mail from CFAD0::NAKANO on 2006-11-04 04:16:29(JST).

 



◎C/2005 YWの軌道と予報位置です



 美星から18日02:00に戻りました.上尾の門田健一氏から昨日朝(17日)の

観測の報告がありました.氏のCCD全光度は,彗星は,比較的明るく14.3等で

した.



    C/2005 YW (LINEAR)

Epoch 2006 Dec. 11.0 TT = JDT 2454080.5  

T 2006 Dec. 7.85038 TT                                  Nakano

q   1.9930051            (2000.0)            P               Q

z  +0.0052561      Peri.  234.63478     -0.83283845     +0.06260321

 +/-0.0000108      Node   302.21428     +0.35704721     -0.69847414

e   0.9895245      Incl.   40.54385     -0.42296265     -0.71289180

From 65 observations 2005 Dec. 21-2006 Oct. 15, mean residual 0".51.

   (1/a)org.= +0.005510, (1/a)fut.= +0.006835 (+/-0.000011), Q= 6.



2006/        α  (2000) δ      △      r      Elong. Phase    m1   天文薄明開始時

  0h TT     h  m       。  ,        AU      AU      。      。      等     h。    A 。 

Oct. 15   10 37.90  -06 29.5    2.745   2.093    40.7   18.1   14.4   +16.0  290.5

     16   10 39.71  -06 55.7    2.735   2.090    41.2   18.3   14.4   +16.3  291.3

     17   10 41.51  -07 22.1    2.724   2.086    41.6   18.5   14.4   +16.6  292.1

     18   10 43.32  -07 48.7    2.713   2.083    42.0   18.7   14.4   +16.8  293.0

     19   10 45.13  -08 15.4    2.703   2.079    42.4   18.9   14.3   +17.1  293.8

     20   10 46.95  -08 42.3    2.692   2.076    42.9   19.0   14.3   +17.4  294.7

     21   10 48.77  -09 09.3    2.682   2.073    43.3   19.2   14.3   +17.6  295.5

     22   10 50.59  -09 36.5    2.671   2.069    43.7   19.4   14.3   +17.8  296.4

     23   10 52.41  -10 03.8    2.661   2.066    44.1   19.6   14.3   +18.1  297.3

     24   10 54.24  -10 31.3    2.650   2.063    44.5   19.8   14.3   +18.3  298.2

     25   10 56.07  -10 58.9    2.640   2.060    45.0   19.9   14.2   +18.5  299.0

     26   10 57.91  -11 26.7    2.630   2.057    45.4   20.1   14.2   +18.7  299.9

     27   10 59.74  -11 54.6    2.619   2.054    45.8   20.3   14.2   +18.9  300.8

     28   11 01.58  -12 22.7    2.609   2.051    46.2   20.5   14.2   +19.1  301.7

     29   11 03.43  -12 50.9    2.599   2.048    46.6   20.6   14.2   +19.2  302.6

     30   11 05.28  -13 19.2    2.589   2.046    47.0   20.8   14.2   +19.4  303.4

     31   11 07.13  -13 47.7    2.579   2.043    47.4   21.0   14.2   +19.5  304.3

Nov.  1   11 08.99  -14 16.3    2.569   2.040    47.8   21.1   14.1   +19.7  305.2

      2   11 10.85  -14 45.1    2.559   2.038    48.2   21.3   14.1   +19.8  306.1

      3   11 12.71  -15 14.0    2.550   2.035    48.6   21.5   14.1   +19.9  307.0

      4   11 14.58  -15 43.0    2.540   2.033    49.0   21.6   14.1   +20.1  307.9

      5   11 16.46  -16 12.1    2.530   2.030    49.4   21.8   14.1   +20.2  308.8

      6   11 18.34  -16 41.4    2.521   2.028    49.8   21.9   14.1   +20.2  309.7

      7   11 20.22  -17 10.8    2.511   2.026    50.2   22.1   14.1   +20.3  310.6

      8   11 22.11  -17 40.3    2.502   2.024    50.6   22.2   14.1   +20.4  311.5

      9   11 24.00  -18 09.9    2.493   2.022    51.0   22.4   14.0   +20.5  312.4

     10   11 25.90  -18 39.7    2.484   2.020    51.4   22.5   14.0   +20.5  313.3

     11   11 27.81  -19 09.5    2.474   2.018    51.8   22.7   14.0   +20.5  314.2

     12   11 29.72  -19 39.5    2.465   2.016    52.2   22.8   14.0   +20.6  315.1

     13   11 31.63  -20 09.6    2.456   2.014    52.5   23.0   14.0   +20.6  316.0

     14   11 33.55  -20 39.8    2.448   2.012    52.9   23.1   14.0   +20.6  316.9

     15   11 35.48  -21 10.0    2.439   2.011    53.3   23.2   14.0   +20.6  317.8

     16   11 37.41  -21 40.4    2.430   2.009    53.7   23.4   14.0   +20.5  318.7

     17   11 39.34  -22 10.9    2.422   2.008    54.1   23.5   13.9   +20.5  319.6

     18   11 41.29  -22 41.4    2.413   2.006    54.4   23.6   13.9   +20.5  320.5

     19   11 43.23  -23 12.0    2.405   2.005    54.8   23.8   13.9   +20.4  321.4

     20   11 45.19  -23 42.7    2.396   2.004    55.2   23.9   13.9   +20.3  322.3

     21   11 47.15  -24 13.5    2.388   2.002    55.5   24.0   13.9   +20.2  323.1

     22   11 49.12  -24 44.4    2.380   2.001    55.9   24.1   13.9   +20.1  324.0

     23   11 51.09  -25 15.3    2.372   2.000    56.3   24.2   13.9   +20.0  324.9

     24   11 53.07  -25 46.2    2.364   1.999    56.6   24.4   13.9   +19.9  325.7

     25   11 55.06  -26 17.3    2.356   1.998    57.0   24.5   13.9   +19.8  326.6

     26   11 57.05  -26 48.3    2.349   1.998    57.4   24.6   13.9   +19.6  327.4

     27   11 59.05  -27 19.5    2.341   1.997    57.7   24.7   13.9   +19.5  328.3

     28   12 01.05  -27 50.6    2.334   1.996    58.1   24.8   13.8   +19.3  329.1

     29   12 03.07  -28 21.8    2.326   1.995    58.4   24.9   13.8   +19.1  329.9

     30   12 05.09  -28 53.1    2.319   1.995    58.8   25.0   13.8   +19.0  330.7

Dec.  1   12 07.12  -29 24.3    2.312   1.994    59.1   25.1   13.8   +18.8  331.5

                    m1 =  9.0 + 5 log △ + 10.0 log r

NAKANO

         **** Don't distribute anyone except personal use only ****

                (C) Copyright 2006 OAA/ComputingSection

write mail from CFAD0::NAKANO on 2006-10-18 02:38:22(JST).

 





戻ります。